sat.trackr.live / text

‹ back to catalog

STARLINK-4563

NORAD 53561 · 2022-101AL

PAYLOAD ACTIVE UNKNOWN

§ Identity

Operator
Country
US
Launch date
2022-08-19
Launch site
AFETR
Launch vehicle
Mass (kg)
RCS (m²)

Purposes: comms

External: N2YO · Heavens-Above · Gunter

§ Orbital elements

Epoch: 2026-05-25T02:08:11.751360Z

Period
95.44 min
Inclination
53.2152°
Eccentricity
0.0001368
Mean motion
15.08841501 rev/d
Perigee alt
538.8 km
Apogee alt
540.7 km
Semi-major
6,917.9 km
B*
5.9952e-5
RAAN
81.1481°
Arg perigee
86.6509°
Mean anomaly
273.4640°
Rev number
20,784

§ Raw data

STARLINK-45631 53561U 22101AL  26145.08902490  .00000666  00000+0  59952-4 0  99972 53561  53.2152  81.1481 0001368  86.6509 273.4640 15.08841501207845

JSON: /api/v1/satellites/53561 · /tle

For live sub-satellite position, see the globe view (requires WebGL).

§ Visibility from observer

Set your observer location to see the next 7 days of passes ≥ 10°. The values pass through the URL so the page stays shareable.

No JS? Fill the form by hand. The geolocation button needs JavaScript.